Observations for Trim Patrick St
| Time | AQI | Temp °C | Hum % | Pres Pa | CO μg/m³ | H₂S μg/m³ | NO μg/m³ | NO₂ μg/m³ | O₃ μg/m³ | SO₂ μg/m³ | PM1 μg/m³ | PM2.5 μg/m³ | PM10 μg/m³ |
|---|---|---|---|---|---|---|---|---|---|---|---|---|---|
| Saturday 1 August 2026 | |||||||||||||
| 05:21 | 2 | 10.7 | 81 | 38,460 | 0.39 | 1.5 | 4.21 | 15.55 | 24.28 | 0 | 6.29 | 10.02 | 11.02 |
| 05:20 | 2 | 10.7 | 81 | 38,460 | 0.38 | 2.43 | 4.16 | 23.11 | 36.84 | 0 | 5.43 | 10.73 | 11.8 |
| 05:19 | 2 | 10.7 | 81 | 38,460 | 0.39 | 1.11 | 4.15 | 17.85 | 33.34 | 0 | 4.57 | 9.33 | 10.26 |
| 05:18 | 2 | 10.7 | 81 | 38,460 | 0.38 | 0.65 | 4.24 | 15.95 | 21.72 | 0 | 5.43 | 10.03 | 11.03 |
| 05:17 | 2 | 10.7 | 81 | 38,460 | 0.38 | 1.4 | 4.22 | 17.81 | 26.11 | 0 | 5.43 | 10.04 | 11.05 |
| 05:16 | 2 | 10.8 | 81 | 38,460 | 0.39 | 0.47 | 4.31 | 17.7 | 20.57 | 0 | 5.43 | 9.36 | 10.29 |
| 05:15 | 2 | 10.8 | 81 | 38,460 | 0.38 | 1.06 | 4.34 | 16.38 | 25.17 | 0 | 5.43 | 10.07 | 11.08 |
| 05:14 | 2 | 10.8 | 81 | 38,460 | 0.38 | 0.37 | 4.29 | 16.61 | 25.96 | 0 | 4.57 | 7.26 | 7.99 |
| 05:13 | 2 | 10.8 | 81 | 38,460 | 0.39 | 0.37 | 4.2 | 18.43 | 20.78 | 0 | 5.43 | 9.34 | 10.28 |
| 05:12 | 2 | 10.8 | 81 | 38,460 | 0.38 | 0 | 4.24 | 14.78 | 24.64 | 0 | 4.57 | 7.26 | 7.98 |
| 05:11 | 2 | 10.8 | 81 | 38,460 | 0.39 | 0 | 4.14 | 13.92 | 24.76 | 0 | 4.57 | 7.95 | 8.75 |
| 05:10 | 2 | 10.8 | 81 | 38,460 | 0.38 | 0.7 | 4.14 | 17.69 | 29.55 | 0 | 5.43 | 9.36 | 10.29 |
| 05:09 | 2 | 10.8 | 81 | 38,460 | 0.39 | 0 | 4.09 | 14.54 | 25.11 | 0 | 5.43 | 9.37 | 10.3 |
| 05:08 | 2 | 10.8 | 81 | 38,460 | 0.38 | 1.01 | 4.15 | 15.99 | 28.32 | 0 | 4.57 | 8.67 | 9.54 |
| 05:07 | 2 | 10.9 | 81 | 38,460 | 0.38 | 1.71 | 4.13 | 19.01 | 31.15 | 0 | 5.43 | 9.37 | 10.31 |
| 05:06 | 2 | 10.9 | 80 | 38,460 | 0.38 | 0 | 4.16 | 17.08 | 26.01 | 0 | 4.57 | 7.99 | 8.79 |
| 05:05 | 2 | 10.9 | 80 | 38,460 | 0.38 | 0.29 | 4.2 | 15.85 | 26.17 | 0 | 6.29 | 8.7 | 9.57 |
| 05:04 | 2 | 10.9 | 80 | 38,460 | 0.38 | 1.22 | 4.22 | 16.02 | 27.85 | 0 | 5.43 | 9.41 | 10.35 |
| 05:03 | 2 | 10.9 | 80 | 38,460 | 0.38 | 1.3 | 4.18 | 16.34 | 20.39 | 0 | 4.57 | 9.45 | 10.4 |
| 05:02 | 2 | 10.9 | 80 | 38,460 | 0.39 | 1.68 | 4.2 | 23.56 | 36.59 | 0 | 4.57 | 8.68 | 9.55 |